Location: Rounton
(54.4000°N, 1.3500°W)
Time: 02:53:08
(UTC+00:00)

Transit 4A - Pass Details

Date: 08 December 2021
Orbit: 864 x 981 km, 66.8° (Epoch: 19 January)

Event Time Altitude Azimuth Distance (km) Brightness Sun altitude
Rises 20:44:34 0° 255° (WSW) 3,497 11.5 -42.3°
Reaches altitude 10° 20:47:13 10° 264° (W) 2,576 10.7 -42.6°
Enters shadow 20:49:09 20° 275° (W) 1,972 10.0 -42.9°
